Regional Weather Roundup
Issued by NWS

Home | Current Version | Previous Version | Graphics & Text | Print | Product List | Glossary On
Versions: 1 2 3 4 5 6 7 8 9 10 11 12 13 14 15 16 17 18 19 20 21 22 23 24 25 26 27 28 29 30 31 32 33 34 35 36 37 38 39 40 41 42 43 44 45 46 47 48 49 50
000
ASUS43 KMPX 061210
RWRMN
WEATHER ROUNDUP FOR MINNESOTA
NATIONAL WEATHER SERVICE TWIN CITIES/CHANHASSEN MN
600 AM CST FRI MAR 06 2015


NOTE: "FAIR" INDICATES FEW OR NO CLOUDS BELOW 12,000 FEET WITH NO
SIGNIFICANT WEATHER AND/OR OBSTRUCTIONS TO VISIBILITY. N/A MEANS
CURRENT SKY AND/OR WEATHER CONDITIONS ARE NOT AVAILABLE.

MNZ060>063-068>070-061300-
   Twin Cities Metro

CITY           SKY/WX    TMP DP  RH WIND       PRES   REMARKS
TWIN CITIES    PTCLDY    10   1  67 S7        30.10F WCI  -1
6HR MIN TEMP:   7; 6HR MAX TEMP:  13;

ST PAUL        CLEAR     11   2  67 S12       30.13F WCI  -3
CRYSTAL        MOCLDY    15   4  61 S9        30.08F WCI   3
BLAINE         CLOUDY    12   5  73 S8        30.08F WCI   1
LAKEVILLE      CLEAR      9   1  72 S7        30.11S WCI  -3
EDEN PRAIRIE   PTCLDY    14   4  64 S12       30.09F WCI   0
6HR MIN TEMP:  10; 6HR MAX TEMP:  14;

SOUTH ST PAUL  CLEAR     12   2  64 S8        30.12F WCI   1
LAKE ELMO      FAIR      12   3  67 S9        30.11F WCI   0
$$
MNZ001>005-007-008-013>017-022>024-027-028-061300-
   Northwest Minnesota

CITY           SKY/WX    TMP DP  RH WIND       PRES   REMARKS
BEMIDJI        CLEAR      9   4  79 W6        29.93R WCI  -1
HALLOCK        PTCLDY     9   3  78 W2        29.98R
ROSEAU         CLEAR     12   7  79 W7        29.94R WCI   2
WARROAD        CLEAR      9   7  92 SW7       29.93R WCI  -3
THIEF RVR FALL PTCLDY    10   7  85 NW6       29.97R WCI   1
CROOKSTON      CLEAR      7   3  85 NW6       30.02R WCI  -3
FOSSTON        CLEAR      3   0  85 W3        29.97R
DETROIT LAKES  CLEAR     14  10  85 CALM      29.98R
MOORHEAD       CLEAR     10   9  92 W5        30.02R WCI   2
PARK RAPIDS    CLEAR      8   2  76 SW5       29.93R WCI   0
MAHNOMEN       FAIR       9   4  82 W3        29.97R
$$
MNZ006-009>011-018-025>026-061300-
   North Central Minnesota

CITY           SKY/WX    TMP DP  RH WIND       PRES   REMARKS
BAUDETTE       CLEAR     12   6  77 NW10      29.89R WCI  -1
FLAG ISLAND    CLEAR     12   5  73 W12       29.89R WCI  -2
INTL FALLS     CLEAR      9   2  73 SW7       29.87R WCI  -2
6HR MIN TEMP:   8; 6HR MAX TEMP:  12;

WASKISH        CLEAR     12   7  79 SW10      29.92R WCI  -1
BIG FORK       CLEAR      9   1  72 SW6       29.91S WCI  -1
LONGVILLE      CLEAR     10   3  72 CALM      29.95R
GRAND RAPIDS   PTCLDY    10   1  67 S5        29.92S WCI   2
CRANE LAKE     MOCLDY     9   1  72 S6        29.91S WCI  -1
ORR            CLEAR      9   0  66 CALM      29.87S
COOK           CLEAR      7   1  78 S3        29.90S
WALKER         FAIR      13   4  69 W6        29.94R WCI   3
$$
MNZ012-019>021-037-061300-
   Northeast Minnesota

CITY           SKY/WX    TMP DP  RH WIND       PRES   REMARKS
DULUTH         CLOUDY    11   2  67 SW20G25   29.93F WCI  -7
6HR MIN TEMP:   6; 6HR MAX TEMP:  11;

ELY            CLOUDY    10   1  67 SW8       29.89S WCI  -1
HIBBING        CLOUDY    11   2  67 SW3       29.93R
EVELETH        PTCLDY    12   5  73 SW8       29.94R WCI   1
DULUTH HARBOR  CLOUDY    12   3  67 SW9       30.02F WCI   0
TWO HARBORS    CLOUDY    10   3  72 SW7       29.94F WCI   0
SILVER BAY     CLOUDY    10   1  67 SW5       29.93F WCI   2
GRAND MARAIS     N/A     20  14  77 W16G35    29.96F WCI   6
G MARAIS ARPRT CLOUDY     9   0  66 S9        29.86F WCI  -5
$$
MNZ029>031-032-039>041-046>048-054>057-064-061300-
   West Central Minnesota

CITY           SKY/WX    TMP DP  RH WIND       PRES   REMARKS
FERGUS FALLS   CLEAR      9   3  78 W6        30.04R WCI  -1
WHEATON        CLEAR     12   7  79 W6        30.05R WCI   3
MORRIS         CLEAR     10   7  85 CALM      30.01R
ALEXANDRIA     CLEAR     12   5  73 SW10      29.99R WCI  -1
ELBOW LAKE     FAIR       8   4  82 S8        30.00R WCI  -4
WADENA         CLEAR     12   7  79 W7        29.96R WCI   2
GLENWOOD       CLEAR     10   7  85 SW9       30.01R WCI  -2
APPLETON       CLEAR     18  10  73 SW7       30.02S WCI   8
BENSON         CLEAR     10   7  85 CALM      30.02S
ORTONVILLE     CLEAR     18  10  73 W5        30.02R WCI  11
MADISON        CLEAR     18  10  73 SW8       30.03F WCI   7
WILLMAR        FAIR      12   9  85 S3        30.04S
$$
MNZ033>034-036-042>043-049>051-058-059-061300-
   Central Minnesota

CITY           SKY/WX    TMP DP  RH WIND       PRES   REMARKS
ST CLOUD       CLOUDY    13   5  70 S7        30.03F WCI   3
6HR MIN TEMP:   8; 6HR MAX TEMP:  13;

SAUK CENTRE    PTSUNNY   13   8  79 SW3       30.01R
PAYNESVILLE    PTCLDY    11   6  79 SE8       30.02F WCI  -1
AITKIN         CLOUDY    18   9  68 S9        29.95S WCI   6
PINE RIVER     CLEAR     12   7  79 CALM      29.99R
BRAINERD       MOCLDY    12   5  73 S9        29.97F WCI   0
STAPLES        CLEAR      9   3  78 CALM      29.97R
LONG PRAIRIE   MOCLDY    12   9  85 S9        29.99S WCI   0
LITTLE FALLS   MOCLDY    16   9  73 S5        30.01S WCI   9
LITCHFIELD     CLOUDY    14   7  73 CALM      30.05F
BUFFALO        CLOUDY    14   6  69 S7        30.08S WCI   4
MAPLE LAKE     CLOUDY    15   8  75 S6        30.06S WCI   6
$$
MNZ037-044-045-052-053-061300-
   East Central Minnesota

CITY           SKY/WX    TMP DP  RH WIND       PRES   REMARKS
PRINCETON      CLOUDY    16   7  67 S8        30.04F WCI   5
MORA           MOCLDY    12   5  73 S6        30.04F WCI   3
CAMBRIDGE      CLOUDY    14   3  62 S7        30.04F WCI   4
RUSH CITY      CLOUDY    11   3  68 S10       30.06F WCI  -2
MOOSE LAKE     CLOUDY    10   3  72 SW9G17    29.98F WCI  -2
HINCKLEY       CLOUDY    12   5  73 S10       30.03F WCI  -1
CLOQUET        CLOUDY     9   1  72 SW12G18   29.96F WCI  -6
MCGREGOR       CLOUDY    14   9  79 S7        29.96F WCI   4
$$
MNZ071>073-080-081-089-090-097-098-061300-
   Southwest Minnesota

CITY           SKY/WX    TMP DP  RH WIND       PRES   REMARKS
MONTEVIDEO     CLEAR     18  12  79 W7        30.04S WCI   8
GRANITE FALLS  PTCLDY    17  10  74 SW10      30.06S WCI   4
CANBY          CLEAR     23  13  65 W16G22    30.04S WCI  10
MARSHALL       CLEAR     21  10  63 W14       30.05S WCI   8
REDWOOD FALLS  PTCLDY    17  10  74 S7        30.06S WCI   8
OLIVIA         PTCLDY    16  10  79 S7        30.04F WCI   6
PIPESTONE      PTCLDY    16   9  73 SW5       30.06S WCI   9
WINDOM         PTCLDY    18  10  73 SW12      30.07S WCI   5
WORTHINGTON    PTCLDY    18   9  68 SW14      30.10R WCI   4
JACKSON        PTCLDY    19  10  68 SW16      30.09R WCI   5
TRACY          PTCLDY    21  12  67 SW15      30.05S WCI   8
SLAYTON        PTCLDY    18   9  65 SW13      30.06S WCI   5
$$
MNZ065>067-074>077-082>085-091>093-061300-
   South Central Minnesota

CITY           SKY/WX    TMP DP  RH WIND       PRES   REMARKS
MANKATO        CLEAR     12  -8  40 S12       30.10S WCI  -2
NEW ULM        PTCLDY    12   7  79 S6        30.09R WCI   3
ST JAMES       PTCLDY    18  10  73 S5        30.10S WCI  11
FAIRMONT       CLEAR     16   7  67 S12       30.08F WCI   3
GLENCOE        MOCLDY    14   9  79 S9        30.07F WCI   2
FARIBAULT      CLEAR      9   1  72 S8        30.12F WCI  -4
OWATONNA       CLEAR      9   1  72 S14G21    30.11F WCI  -8
WASECA         CLEAR     12   5  73 S12       30.13F WCI  -2
ALBERT LEA     CLEAR      9   1  72 SW3       30.13F
$$
MNZ078>079-086>088-094>096-061300-
   Southeast Minnesota

CITY           SKY/WX    TMP DP  RH WIND       PRES   REMARKS
ROCHESTER      CLEAR      8  -1  66 S20       30.12F WCI -11
6HR MIN TEMP:   2; 6HR MAX TEMP:   8;

RED WING       CLEAR     12   0  57 S3        30.15F
STANTON        CLEAR     12   2  66 S10G16    30.11F WCI  -2
DODGE CENTER   PTCLDY    10   3  72 S18       30.11S WCI  -8
WINONA         CLEAR     12   1  62 S5        30.22F WCI   4
AUSTIN         CLEAR      7   1  78 S10       30.14F WCI  -8
PRESTON        CLEAR      7   0  71 S18       30.16S WCI -12
$$
ABBREVIATIONS USED IN REMARKS
   TC - TEMPERATURES IN CELSIUS
  WCI - WIND CHILL INDEX
   HX - HEAT INDEX
  VSB - VISIBILITY
$$


USA.gov is the U.S. government's official web portal to all federal, state and local government web resources and services.